Zurück zum Katalog

SL-8 DEB

AktivLEO
NORAD 21861·DEBRIS·🇷🇺 Russia

Gestartet Feb 12, 1991 von Plesetsk Cosmodrome

Loading…

Nächste Überflüge (nächste 24 Stunden)

TLE

AlterndSource: Space-Track

Epoche: Sep 12, 2026, 03:39 UTC

1 21861U 91009CA  26255.15215330  .00000008  00000-0  19651-3 0  9990
2 21861  74.0225 288.8982 0137558  21.4021  38.0311 12.25168013587414

Verfolge SL-8 DEB in Echtzeit mit AllMySat

Download on the App Store